Time,TemperatureF,DewpointF,PressureIn,WindDirection,WindDirectionDegrees,WindSpeedMPH,WindSpeedGustMPH,Humidity,HourlyPrecipIn,Conditions,Clouds,dailyrainin,SoftwareType,DateUTC
2013-06-02 00:00:00,54.0,48.3,29.99,North,360,6.0,6.0,81,0.00,,,0.02,Wunderground v.1.15,2013-06-02 05:00:00,
2013-06-02 00:05:00,54.0,48.3,29.99,North,360,6.0,8.0,81,0.00,,,0.00,Wunderground v.1.15,2013-06-02 05:05:00,
2013-06-02 00:14:00,54.0,48.3,29.99,NNE,13,6.0,6.0,81,0.00,,,0.00,Wunderground v.1.15,2013-06-02 05:14:00,
2013-06-02 00:20:00,53.9,48.2,30.00,NW,324,6.0,6.0,81,0.00,,,0.00,Wunderground v.1.15,2013-06-02 05:20:00,
2013-06-02 00:30:00,53.9,48.5,30.00,NW,307,5.0,6.0,82,0.00,,,0.00,Wunderground v.1.15,2013-06-02 05:30:00,
2013-06-02 00:40:00,53.9,48.5,30.00,WNW,303,4.0,4.0,82,0.00,,,0.00,Wunderground v.1.15,2013-06-02 05:40:00,
2013-06-02 00:49:00,53.8,48.4,30.00,North,349,6.0,7.0,82,0.00,,,0.00,Wunderground v.1.15,2013-06-02 05:49:00,
2013-06-02 00:55:00,53.7,48.7,30.00,NNW,341,5.0,7.0,83,0.00,,,0.00,Wunderground v.1.15,2013-06-02 05:55:00,
2013-06-02 01:05:00,53.4,48.7,30.00,NW,305,4.0,9.0,84,0.00,,,0.00,Wunderground v.1.15,2013-06-02 06:05:00,
2013-06-02 01:14:00,53.1,48.4,30.01,North,5,5.0,5.0,84,0.00,,,0.00,Wunderground v.1.15,2013-06-02 06:14:00,
2013-06-02 01:20:00,53.0,48.3,30.01,NW,312,6.0,6.0,84,0.00,,,0.00,Wunderground v.1.15,2013-06-02 06:20:00,
2013-06-02 01:30:00,53.0,48.3,30.01,NW,308,6.0,6.0,84,0.00,,,0.00,Wunderground v.1.15,2013-06-02 06:30:00,
2013-06-02 01:35:00,52.9,48.5,30.01,WNW,283,5.0,7.0,85,0.00,,,0.00,Wunderground v.1.15,2013-06-02 06:35:00,
2013-06-02 01:44:00,52.9,48.5,30.01,WNW,303,5.0,8.0,85,0.00,,,0.00,Wunderground v.1.15,2013-06-02 06:44:00,
2013-06-02 01:50:00,52.9,48.5,30.01,NW,316,4.0,4.0,85,0.00,,,0.00,Wunderground v.1.15,2013-06-02 06:50:00,
2013-06-02 02:00:00,52.8,48.4,30.01,North,360,5.0,6.0,85,0.00,,,0.00,Wunderground v.1.15,2013-06-02 07:00:00,
2013-06-02 02:05:00,52.8,48.4,30.01,North,349,5.0,6.0,85,0.00,,,0.00,Wunderground v.1.15,2013-06-02 07:05:00,
2013-06-02 02:15:00,52.6,48.2,30.02,NW,324,6.0,6.0,85,0.00,,,0.00,Wunderground v.1.15,2013-06-02 07:15:00,
2013-06-02 02:24:00,52.4,48.0,30.02,NNW,336,6.0,10.0,85,0.00,,,0.00,Wunderground v.1.15,2013-06-02 07:24:00,
2013-06-02 02:30:00,52.4,47.7,30.02,NNW,337,6.0,9.0,84,0.00,,,0.00,Wunderground v.1.15,2013-06-02 07:30:00,
2013-06-02 02:40:00,52.4,47.7,30.02,North,350,5.0,5.0,84,0.00,,,0.00,Wunderground v.1.15,2013-06-02 07:40:00,
2013-06-02 02:45:00,52.4,47.7,30.02,North,360,5.0,5.0,84,0.00,,,0.00,Wunderground v.1.15,2013-06-02 07:45:00,
2013-06-02 02:55:00,52.3,47.6,30.02,WNW,298,5.0,5.0,84,0.00,,,0.00,Wunderground v.1.15,2013-06-02 07:55:00,
2013-06-02 03:05:00,52.3,47.6,30.03,North,5,6.0,6.0,84,0.00,,,0.00,Wunderground v.1.15,2013-06-02 08:05:00,
2013-06-02 03:14:00,52.1,47.4,30.02,NNW,344,6.0,8.0,84,0.00,,,0.00,Wunderground v.1.15,2013-06-02 08:14:00,
2013-06-02 03:20:00,52.0,47.3,30.02,NW,321,5.0,5.0,84,0.00,,,0.00,Wunderground v.1.15,2013-06-02 08:20:00,
2013-06-02 03:30:00,51.8,47.1,30.02,North,360,6.0,6.0,84,0.00,,,0.00,Wunderground v.1.15,2013-06-02 08:30:00,
2013-06-02 03:39:00,51.5,46.8,30.02,NW,317,5.0,5.0,84,0.00,,,0.00,Wunderground v.1.15,2013-06-02 08:39:00,
2013-06-02 03:45:00,51.4,46.7,30.02,NNW,334,6.0,6.0,84,0.00,,,0.00,Wunderground v.1.15,2013-06-02 08:45:00,
2013-06-02 03:54:00,51.2,46.5,30.02,NW,315,5.0,7.0,84,0.00,,,0.00,Wunderground v.1.15,2013-06-02 08:54:00,
2013-06-02 04:00:00,51.2,46.5,30.02,NNW,338,6.0,8.0,84,0.00,,,0.00,Wunderground v.1.15,2013-06-02 09:00:00,
2013-06-02 04:05:00,51.1,46.4,30.02,NNW,333,6.0,8.0,84,0.00,,,0.00,Wunderground v.1.15,2013-06-02 09:05:00,
2013-06-02 04:14:00,51.1,46.1,30.02,NNW,329,7.0,7.0,83,0.00,,,0.00,Wunderground v.1.15,2013-06-02 09:14:00,
2013-06-02 04:19:00,51.1,46.1,30.02,NNW,336,6.0,6.0,83,0.00,,,0.00,Wunderground v.1.15,2013-06-02 09:19:00,
2013-06-02 04:25:00,51.1,46.1,30.02,North,355,4.0,7.0,83,0.00,,,0.00,Wunderground v.1.15,2013-06-02 09:25:00,
2013-06-02 04:30:00,51.1,46.1,30.02,NNW,333,5.0,10.0,83,0.00,,,0.00,Wunderground v.1.15,2013-06-02 09:30:00,
2013-06-02 04:40:00,51.1,46.1,30.02,NW,314,7.0,7.0,83,0.00,,,0.00,Wunderground v.1.15,2013-06-02 09:40:00,
2013-06-02 04:49:00,51.1,46.1,30.02,NNW,339,5.0,7.0,83,0.00,,,0.00,Wunderground v.1.15,2013-06-02 09:49:00,
2013-06-02 04:55:00,51.1,46.1,30.03,NW,317,6.0,7.0,83,0.00,,,0.00,Wunderground v.1.15,2013-06-02 09:55:00,
2013-06-02 05:05:00,51.2,45.9,30.03,NNW,331,5.0,7.0,82,0.00,,,0.00,Wunderground v.1.15,2013-06-02 10:05:00,
2013-06-02 05:14:00,51.2,45.9,30.04,NW,318,5.0,5.0,82,0.00,,,0.00,Wunderground v.1.15,2013-06-02 10:14:00,
2013-06-02 05:20:00,51.3,46.0,30.04,NNW,336,4.0,4.0,82,0.00,,,0.00,Wunderground v.1.15,2013-06-02 10:20:00,
2013-06-02 05:30:00,51.3,46.0,30.05,NW,309,3.0,3.0,82,0.00,,,0.00,Wunderground v.1.15,2013-06-02 10:30:00,
2013-06-02 05:35:00,51.3,46.0,30.05,NW,318,4.0,4.0,82,0.00,,,0.00,Wunderground v.1.15,2013-06-02 10:35:00,
2013-06-02 05:45:00,51.4,46.1,30.05,NNW,332,4.0,6.0,82,0.00,,,0.00,Wunderground v.1.15,2013-06-02 10:45:00,
2013-06-02 05:50:00,51.4,45.8,30.05,North,9,4.0,4.0,81,0.00,,,0.00,Wunderground v.1.15,2013-06-02 10:50:00,
2013-06-02 06:00:00,51.4,45.8,30.05,NNW,335,4.0,4.0,81,0.00,,,0.00,Wunderground v.1.15,2013-06-02 11:00:00,
2013-06-02 06:05:00,51.4,45.8,30.05,North,360,4.0,12.0,81,0.00,,,0.00,Wunderground v.1.15,2013-06-02 11:05:00,
2013-06-02 06:15:00,51.5,45.9,30.05,North,350,4.0,6.0,81,0.00,,,0.00,Wunderground v.1.15,2013-06-02 11:15:00,
2013-06-02 06:24:00,51.5,45.9,30.06,North,355,4.0,4.0,81,0.00,,,0.00,Wunderground v.1.15,2013-06-02 11:24:00,
2013-06-02 06:30:00,51.5,45.9,30.06,North,355,5.0,7.0,81,0.00,,,0.00,Wunderground v.1.15,2013-06-02 11:30:00,
2013-06-02 06:40:00,51.6,45.6,30.06,NNW,340,5.0,5.0,80,0.00,,,0.00,Wunderground v.1.15,2013-06-02 11:40:00,
2013-06-02 06:45:00,51.7,45.7,30.06,NNE,15,4.0,5.0,80,0.00,,,0.00,Wunderground v.1.15,2013-06-02 11:45:00,
2013-06-02 06:55:00,51.8,45.8,30.07,North,349,4.0,6.0,80,0.00,,,0.00,Wunderground v.1.15,2013-06-02 11:55:00,
2013-06-02 07:00:00,51.9,45.9,30.06,NNW,328,4.0,4.0,80,0.00,,,0.00,Wunderground v.1.15,2013-06-02 12:00:00,
2013-06-02 07:10:00,52.1,46.1,30.07,NNW,344,3.0,3.0,80,0.00,,,0.00,Wunderground v.1.15,2013-06-02 12:10:00,
2013-06-02 07:19:00,52.1,46.1,30.07,NW,311,5.0,5.0,80,0.00,,,0.00,Wunderground v.1.15,2013-06-02 12:19:00,
2013-06-02 07:25:00,52.2,46.2,30.07,NNW,343,3.0,5.0,80,0.00,,,0.00,Wunderground v.1.15,2013-06-02 12:25:00,
2013-06-02 07:35:00,52.3,46.0,30.07,North,355,3.0,6.0,79,0.00,,,0.00,Wunderground v.1.15,2013-06-02 12:35:00,
2013-06-02 07:40:00,52.3,46.0,30.07,NNW,339,3.0,4.0,79,0.00,,,0.00,Wunderground v.1.15,2013-06-02 12:40:00,
2013-06-02 07:49:00,52.4,46.1,30.08,North,5,4.0,6.0,79,0.00,,,0.00,Wunderground v.1.15,2013-06-02 12:49:00,
2013-06-02 07:55:00,52.4,46.1,30.08,WNW,303,3.0,6.0,79,0.00,,,0.00,Wunderground v.1.15,2013-06-02 12:55:00,
2013-06-02 08:05:00,52.6,45.6,30.08,NW,311,4.0,4.0,77,0.00,,,0.00,Wunderground v.1.15,2013-06-02 13:05:00,
2013-06-02 08:15:00,52.8,45.8,30.08,WNW,290,4.0,4.0,77,0.00,,,0.00,Wunderground v.1.15,2013-06-02 13:15:00,
2013-06-02 08:25:00,53.0,45.3,30.09,North,360,4.0,5.0,75,0.00,,,0.00,Wunderground v.1.15,2013-06-02 13:25:00,
2013-06-02 08:35:00,53.3,45.6,30.09,NNW,335,4.0,5.0,75,0.00,,,0.00,Wunderground v.1.15,2013-06-02 13:35:00,
2013-06-02 08:40:00,53.5,45.4,30.09,NNW,340,5.0,5.0,74,0.00,,,0.00,Wunderground v.1.15,2013-06-02 13:40:00,
2013-06-02 08:49:00,53.7,45.2,30.09,NNW,335,5.0,9.0,73,0.00,,,0.00,Wunderground v.1.15,2013-06-02 13:49:00,
2013-06-02 08:55:00,53.7,44.9,30.09,North,9,6.0,9.0,72,0.00,,,0.00,Wunderground v.1.15,2013-06-02 13:55:00,
2013-06-02 09:05:00,54.0,45.2,30.09,NNW,342,5.0,7.0,72,0.00,,,0.00,Wunderground v.1.15,2013-06-02 14:05:00,
2013-06-02 09:14:00,54.6,45.8,30.09,NW,323,5.0,9.0,72,0.00,,,0.00,Wunderground v.1.15,2013-06-02 14:14:00,
2013-06-02 09:20:00,55.1,46.2,30.09,NNE,19,6.0,7.0,72,0.00,,,0.00,Wunderground v.1.15,2013-06-02 14:20:00,
2013-06-02 09:25:00,55.7,46.8,30.09,NW,322,5.0,7.0,72,0.00,,,0.00,Wunderground v.1.15,2013-06-02 14:25:00,
2013-06-02 09:35:00,56.4,46.7,30.09,NNE,21,3.0,8.0,70,0.00,,,0.00,Wunderground v.1.15,2013-06-02 14:35:00,
2013-06-02 09:45:00,56.6,46.9,30.10,NNW,335,3.0,3.0,70,0.00,,,0.00,Wunderground v.1.15,2013-06-02 14:45:00,
2013-06-02 09:50:00,56.6,46.9,30.10,North,5,3.0,3.0,70,0.00,,,0.00,Wunderground v.1.15,2013-06-02 14:50:00,
2013-06-02 09:59:00,56.8,47.1,30.10,NW,307,3.0,4.0,70,0.00,,,0.00,Wunderground v.1.15,2013-06-02 14:59:00,
2013-06-02 10:05:00,56.6,45.8,30.10,NNE,22,4.0,6.0,67,0.00,,,0.00,Wunderground v.1.15,2013-06-02 15:05:00,
2013-06-02 10:15:00,56.9,46.8,30.10,NW,304,3.0,9.0,69,0.00,,,0.00,Wunderground v.1.15,2013-06-02 15:15:00,
2013-06-02 10:25:00,57.1,46.6,30.10,WNW,302,4.0,4.0,68,0.00,,,0.00,Wunderground v.1.15,2013-06-02 15:25:00,
2013-06-02 10:30:00,57.3,47.6,30.10,WNW,303,3.0,3.0,70,0.00,,,0.00,Wunderground v.1.15,2013-06-02 15:30:00,
2013-06-02 10:39:00,57.6,47.1,30.10,NNW,339,3.0,3.0,68,0.00,,,0.00,Wunderground v.1.15,2013-06-02 15:39:00,
2013-06-02 10:45:00,57.7,46.8,30.10,NNW,346,3.0,3.0,67,0.00,,,0.00,Wunderground v.1.15,2013-06-02 15:45:00,
2013-06-02 10:54:00,57.9,47.0,30.10,WNW,295,3.0,5.0,67,0.00,,,0.00,Wunderground v.1.15,2013-06-02 15:54:00,
2013-06-02 11:00:00,57.7,47.2,30.10,WNW,300,4.0,7.0,68,0.00,,,0.00,Wunderground v.1.15,2013-06-02 16:00:00,
2013-06-02 11:05:00,57.7,47.6,30.10,WNW,294,4.0,7.0,69,0.00,,,0.00,Wunderground v.1.15,2013-06-02 16:05:00,
2013-06-02 11:10:00,57.8,47.3,30.10,NW,304,4.0,5.0,68,0.00,,,0.00,Wunderground v.1.15,2013-06-02 16:10:00,
2013-06-02 11:20:00,58.3,47.4,30.10,WNW,294,3.0,3.0,67,0.00,,,0.00,Wunderground v.1.15,2013-06-02 16:20:00,
2013-06-02 11:25:00,58.4,47.9,30.10,NNW,335,4.0,4.0,68,0.00,,,0.00,Wunderground v.1.15,2013-06-02 16:25:00,
2013-06-02 11:35:00,59.8,49.6,30.10,NNW,345,2.0,7.0,69,0.00,,,0.00,Wunderground v.1.15,2013-06-02 16:35:00,
2013-06-02 11:44:00,60.2,48.8,30.09,NW,306,4.0,7.0,66,0.00,,,0.00,Wunderground v.1.15,2013-06-02 16:44:00,
2013-06-02 11:50:00,60.4,48.6,30.09,NE,39,3.0,3.0,65,0.00,,,0.00,Wunderground v.1.15,2013-06-02 16:50:00,
2013-06-02 11:59:00,60.4,48.6,30.09,NNE,24,4.0,4.0,65,0.00,,,0.00,Wunderground v.1.15,2013-06-02 16:59:00,
2013-06-02 12:05:00,60.6,49.2,30.09,North,9,2.0,4.0,66,0.00,,,0.00,Wunderground v.1.15,2013-06-02 17:05:00,
2013-06-02 12:15:00,61.1,48.4,30.09,North,9,3.0,8.0,63,0.00,,,0.00,Wunderground v.1.15,2013-06-02 17:15:00,
2013-06-02 12:24:00,60.9,47.4,30.09,NNE,13,3.0,4.0,61,0.00,,,0.00,Wunderground v.1.15,2013-06-02 17:24:00,
2013-06-02 12:30:00,60.9,48.2,30.08,North,355,3.0,3.0,63,0.00,,,0.00,Wunderground v.1.15,2013-06-02 17:30:00,
2013-06-02 12:40:00,62.1,48.0,30.08,NNW,339,5.0,5.0,60,0.00,,,0.00,Wunderground v.1.15,2013-06-02 17:40:00,
2013-06-02 12:45:00,62.8,48.7,30.08,NNE,22,4.0,5.0,60,0.00,,,0.00,Wunderground v.1.15,2013-06-02 17:45:00,
2013-06-02 12:55:00,63.1,48.5,30.08,NE,47,3.0,6.0,59,0.00,,,0.00,Wunderground v.1.15,2013-06-02 17:55:00,
2013-06-02 13:00:00,63.4,48.8,30.08,NNW,344,4.0,4.0,59,0.00,,,0.00,Wunderground v.1.15,2013-06-02 18:00:00,
2013-06-02 13:05:00,64.3,50.6,30.08,NNW,338,4.0,9.0,61,0.00,,,0.00,Wunderground v.1.15,2013-06-02 18:05:00,
2013-06-02 13:14:00,64.7,48.6,30.08,NNE,17,3.0,4.0,56,0.00,,,0.00,Wunderground v.1.15,2013-06-02 18:14:00,
2013-06-02 13:19:00,64.2,48.2,30.08,East,80,4.0,5.0,56,0.00,,,0.00,Wunderground v.1.15,2013-06-02 18:19:00,
2013-06-02 13:25:00,64.5,49.4,30.08,NNW,338,4.0,5.0,58,0.00,,,0.00,Wunderground v.1.15,2013-06-02 18:25:00,
2013-06-02 13:30:00,65.1,49.0,30.07,WNW,291,3.0,3.0,56,0.00,,,0.00,Wunderground v.1.15,2013-06-02 18:30:00,
2013-06-02 13:40:00,65.9,52.5,30.07,WNW,295,3.0,3.0,62,0.00,,,0.00,Wunderground v.1.15,2013-06-02 18:40:00,
2013-06-02 13:49:00,66.5,49.8,30.07,NNW,327,2.0,2.0,55,0.00,,,0.00,Wunderground v.1.15,2013-06-02 18:49:00,
2013-06-02 13:55:00,66.6,49.4,30.07,NNW,338,3.0,5.0,54,0.00,,,0.00,Wunderground v.1.15,2013-06-02 18:55:00,
2013-06-02 14:05:00,66.3,51.1,30.07,WSW,254,2.0,3.0,58,0.00,,,0.00,Wunderground v.1.15,2013-06-02 19:05:00,
2013-06-02 14:15:00,67.3,53.4,30.07,North,350,4.0,4.0,61,0.00,,,0.00,Wunderground v.1.15,2013-06-02 19:15:00,
2013-06-02 14:20:00,68.3,52.0,30.07,North,5,3.0,3.0,56,0.00,,,0.00,Wunderground v.1.15,2013-06-02 19:20:00,
2013-06-02 14:29:00,67.1,48.9,30.07,North,360,2.0,2.0,52,0.00,,,0.00,Wunderground v.1.15,2013-06-02 19:29:00,
2013-06-02 14:35:00,66.5,51.3,30.07,WNW,282,3.0,3.0,58,0.00,,,0.00,Wunderground v.1.15,2013-06-02 19:35:00,
2013-06-02 14:44:00,67.5,49.8,30.07,NE,38,2.0,3.0,53,0.00,,,0.00,Wunderground v.1.15,2013-06-02 19:44:00,
2013-06-02 14:50:00,67.4,52.1,30.06,NE,46,2.0,3.0,58,0.00,,,0.00,Wunderground v.1.15,2013-06-02 19:50:00,
2013-06-02 14:59:00,65.6,49.0,30.06,ENE,64,2.0,2.0,55,0.00,,,0.00,Wunderground v.1.15,2013-06-02 19:59:00,
2013-06-02 15:05:00,66.4,49.2,30.06,North,5,2.0,2.0,54,0.00,,,0.00,Wunderground v.1.15,2013-06-02 20:05:00,
2013-06-02 15:15:00,65.6,49.5,30.06,NNE,16,1.0,2.0,56,0.00,,,0.00,Wunderground v.1.15,2013-06-02 20:15:00,
2013-06-02 15:20:00,65.2,49.1,30.06,ENE,74,1.0,1.0,56,0.00,,,0.00,Wunderground v.1.15,2013-06-02 20:20:00,
2013-06-02 15:30:00,66.1,50.4,30.05,WSW,252,1.0,4.0,57,0.00,,,0.00,Wunderground v.1.15,2013-06-02 20:30:00,
2013-06-02 15:35:00,68.2,51.4,30.05,West,267,2.0,4.0,55,0.00,,,0.00,Wunderground v.1.15,2013-06-02 20:35:00,
2013-06-02 15:45:00,69.5,52.1,30.05,West,261,3.0,3.0,54,0.00,,,0.00,Wunderground v.1.15,2013-06-02 20:45:00,
2013-06-02 15:54:00,68.4,50.1,30.05,West,264,1.0,3.0,52,0.00,,,0.00,Wunderground v.1.15,2013-06-02 20:54:00,
2013-06-02 16:00:00,67.7,51.9,30.04,North,350,1.0,1.0,57,0.00,,,0.00,Wunderground v.1.15,2013-06-02 21:00:00,
2013-06-02 16:05:00,69.1,51.2,30.04,NE,41,2.0,2.0,53,0.00,,,0.00,Wunderground v.1.15,2013-06-02 21:05:00,
2013-06-02 16:15:00,68.3,51.0,30.04,NNE,22,1.0,2.0,54,0.00,,,0.00,Wunderground v.1.15,2013-06-02 21:15:00,
2013-06-02 16:25:00,68.2,49.9,30.03,NNE,14,2.0,2.0,52,0.00,,,0.00,Wunderground v.1.15,2013-06-02 21:25:00,
2013-06-02 16:30:00,68.2,50.4,30.03,ENE,68,1.0,2.0,53,0.00,,,0.00,Wunderground v.1.15,2013-06-02 21:30:00,
2013-06-02 16:40:00,67.5,49.8,30.03,ENE,68,1.0,1.0,53,0.00,,,0.00,Wunderground v.1.15,2013-06-02 21:40:00,
2013-06-02 16:45:00,67.4,52.1,30.02,ESE,122,0.0,1.0,58,0.00,,,0.00,Wunderground v.1.15,2013-06-02 21:45:00,
2013-06-02 16:55:00,67.2,49.0,30.02,East,96,2.0,2.0,52,0.00,,,0.00,Wunderground v.1.15,2013-06-02 21:55:00,
2013-06-02 17:00:00,66.9,49.7,30.02,SE,134,3.0,3.0,54,0.00,,,0.00,Wunderground v.1.15,2013-06-02 22:00:00,
2013-06-02 17:05:00,66.5,47.3,30.02,East,92,3.0,3.0,50,0.00,,,0.00,Wunderground v.1.15,2013-06-02 22:05:00,
2013-06-02 17:14:00,66.7,50.5,30.02,East,95,1.0,3.0,56,0.00,,,0.00,Wunderground v.1.15,2013-06-02 22:14:00,
2013-06-02 17:20:00,67.2,50.0,30.02,SE,139,2.0,2.0,54,0.00,,,0.00,Wunderground v.1.15,2013-06-02 22:20:00,
2013-06-02 17:25:00,67.0,49.8,30.02,ESE,104,2.0,2.0,54,0.00,,,0.00,Wunderground v.1.15,2013-06-02 22:25:00,
2013-06-02 17:35:00,67.0,50.3,30.01,SE,146,1.0,3.0,55,0.00,,,0.00,Wunderground v.1.15,2013-06-02 22:35:00,
2013-06-02 17:40:00,67.1,48.9,30.01,SE,146,1.0,1.0,52,0.00,,,0.00,Wunderground v.1.15,2013-06-02 22:40:00,
2013-06-02 17:50:00,67.4,48.6,30.01,ENE,59,1.0,2.0,51,0.00,,,0.00,Wunderground v.1.15,2013-06-02 22:50:00,
2013-06-02 17:55:00,67.1,49.4,30.01,ENE,59,1.0,2.0,53,0.00,,,0.00,Wunderground v.1.15,2013-06-02 22:55:00,
2013-06-02 18:05:00,67.2,49.5,30.00,ENE,59,1.0,1.0,53,0.00,,,0.00,Wunderground v.1.15,2013-06-02 23:05:00,
2013-06-02 18:15:00,66.7,47.5,30.00,SSE,164,1.0,1.0,50,0.00,,,0.00,Wunderground v.1.15,2013-06-02 23:15:00,
2013-06-02 18:20:00,66.6,47.9,30.00,SSE,164,0.0,0.0,51,0.00,,,0.00,Wunderground v.1.15,2013-06-02 23:20:00,
2013-06-02 18:30:00,66.5,47.8,29.99,NNE,26,1.0,1.0,51,0.00,,,0.00,Wunderground v.1.15,2013-06-02 23:30:00,
2013-06-02 18:35:00,66.5,48.3,29.99,NNE,30,2.0,2.0,52,0.00,,,0.00,Wunderground v.1.15,2013-06-02 23:35:00,
2013-06-02 18:44:00,66.1,47.4,29.99,NNE,33,1.0,2.0,51,0.00,,,0.00,Wunderground v.1.15,2013-06-02 23:44:00,
2013-06-02 18:50:00,66.2,48.0,29.99,NNE,33,0.0,0.0,52,0.00,,,0.00,Wunderground v.1.15,2013-06-02 23:50:00,
2013-06-02 18:59:00,66.1,48.0,29.99,NNE,33,0.0,3.0,52,0.00,,,0.00,Wunderground v.1.15,2013-06-02 23:59:00,
2013-06-02 19:05:00,66.1,48.0,29.99,NE,34,1.0,3.0,52,0.00,,,0.00,Wunderground v.1.15,2013-06-03 00:05:00,
2013-06-02 19:15:00,66.0,48.4,29.99,SSE,168,1.0,4.0,53,0.00,,,0.00,Wunderground v.1.15,2013-06-03 00:15:00,
2013-06-02 19:20:00,65.9,47.8,29.98,SSE,168,1.0,1.0,52,0.00,,,0.00,Wunderground v.1.15,2013-06-03 00:20:00,
2013-06-02 19:29:00,65.4,47.3,29.98,East,98,1.0,3.0,52,0.00,,,0.00,Wunderground v.1.15,2013-06-03 00:29:00,
2013-06-02 19:35:00,65.0,47.4,29.99,East,98,2.0,3.0,53,0.00,,,0.00,Wunderground v.1.15,2013-06-03 00:35:00,
2013-06-02 19:45:00,64.7,47.7,29.98,East,97,2.0,2.0,54,0.00,,,0.00,Wunderground v.1.15,2013-06-03 00:45:00,
2013-06-02 19:50:00,64.5,47.5,29.98,East,98,2.0,3.0,54,0.00,,,0.00,Wunderground v.1.15,2013-06-03 00:50:00,
2013-06-02 20:00:00,64.0,46.5,29.98,East,101,1.0,1.0,53,0.00,,,0.00,Wunderground v.1.15,2013-06-03 01:00:00,
2013-06-02 20:05:00,63.9,46.9,29.98,ESE,111,0.0,3.0,54,0.00,,,0.00,Wunderground v.1.15,2013-06-03 01:05:00,
2013-06-02 20:15:00,63.5,47.0,29.99,ESE,113,2.0,2.0,55,0.00,,,0.00,Wunderground v.1.15,2013-06-03 01:15:00,
2013-06-02 20:20:00,63.3,46.9,29.98,ESE,112,1.0,1.0,55,0.00,,,0.00,Wunderground v.1.15,2013-06-03 01:20:00,
2013-06-02 20:30:00,62.9,47.0,29.98,ESE,113,1.0,1.0,56,0.00,,,0.00,Wunderground v.1.15,2013-06-03 01:30:00,
2013-06-02 20:40:00,62.5,47.1,29.98,ESE,113,0.0,0.0,57,0.00,,,0.00,Wunderground v.1.15,2013-06-03 01:40:00,
2013-06-02 20:45:00,62.2,46.8,29.99,ESE,113,0.0,0.0,57,0.00,,,0.00,Wunderground v.1.15,2013-06-03 01:45:00,
2013-06-02 20:55:00,61.7,46.8,29.99,ESE,117,0.0,3.0,58,0.00,,,0.00,Wunderground v.1.15,2013-06-03 01:55:00,
2013-06-02 21:00:00,61.4,46.9,29.99,ESE,117,1.0,1.0,59,0.00,,,0.00,Wunderground v.1.15,2013-06-03 02:00:00,
2013-06-02 21:05:00,61.1,46.7,29.99,ESE,117,1.0,1.0,59,0.00,,,0.00,Wunderground v.1.15,2013-06-03 02:05:00,
2013-06-02 21:14:00,60.5,46.1,29.99,ESE,117,1.0,1.0,59,0.00,,,0.00,Wunderground v.1.15,2013-06-03 02:14:00,
2013-06-02 21:20:00,60.2,46.3,29.99,ESE,117,0.0,1.0,60,0.00,,,0.00,Wunderground v.1.15,2013-06-03 02:20:00,
2013-06-02 21:25:00,59.9,46.0,29.99,ESE,117,0.0,1.0,60,0.00,,,0.00,Wunderground v.1.15,2013-06-03 02:25:00,
2013-06-02 21:34:00,59.3,45.8,29.99,ESE,117,0.0,0.0,61,0.00,,,0.00,Wunderground v.1.15,2013-06-03 02:34:00,
2013-06-02 21:40:00,59.0,45.6,29.99,ESE,117,0.0,1.0,61,0.00,,,0.00,Wunderground v.1.15,2013-06-03 02:40:00,
2013-06-02 21:49:00,58.6,45.6,30.00,ESE,117,0.0,0.0,62,0.00,,,0.00,Wunderground v.1.15,2013-06-03 02:49:00,
2013-06-02 21:55:00,58.3,45.3,30.00,ESE,117,0.0,0.0,62,0.00,,,0.00,Wunderground v.1.15,2013-06-03 02:55:00,
2013-06-02 22:05:00,57.7,45.2,30.00,ESE,117,0.0,1.0,63,0.00,,,0.00,Wunderground v.1.15,2013-06-03 03:05:00,
2013-06-02 22:14:00,57.2,45.1,30.00,ESE,117,0.0,1.0,64,0.00,,,0.00,Wunderground v.1.15,2013-06-03 03:14:00,
2013-06-02 22:20:00,57.0,44.9,30.00,ESE,117,1.0,1.0,64,0.00,,,0.00,Wunderground v.1.15,2013-06-03 03:20:00,
2013-06-02 22:30:00,56.5,44.9,30.00,ESE,117,1.0,1.0,65,0.00,,,0.00,Wunderground v.1.15,2013-06-03 03:30:00,
2013-06-02 22:39:00,56.1,44.9,30.00,ESE,117,0.0,1.0,66,0.00,,,0.00,Wunderground v.1.15,2013-06-03 03:39:00,
2013-06-02 22:44:00,55.9,44.7,30.00,ESE,117,0.0,1.0,66,0.00,,,0.00,Wunderground v.1.15,2013-06-03 03:44:00,
2013-06-02 22:50:00,55.7,44.5,30.00,ESE,117,0.0,1.0,66,0.00,,,0.00,Wunderground v.1.15,2013-06-03 03:50:00,
2013-06-02 22:59:00,55.3,44.5,30.00,ESE,117,0.0,1.0,67,0.00,,,0.00,Wunderground v.1.15,2013-06-03 03:59:00,
2013-06-02 23:05:00,55.1,44.7,30.00,ESE,117,1.0,1.0,68,0.00,,,0.00,Wunderground v.1.15,2013-06-03 04:05:00,
2013-06-02 23:09:00,55.0,44.6,30.01,ESE,117,1.0,2.0,68,0.00,,,0.00,Wunderground v.1.15,2013-06-03 04:09:00,
2013-06-02 23:15:00,54.8,44.8,30.00,ESE,117,1.0,2.0,69,0.00,,,0.00,Wunderground v.1.15,2013-06-03 04:15:00,
2013-06-02 23:25:00,54.6,45.0,30.00,ESE,117,1.0,2.0,70,0.00,,,0.00,Wunderground v.1.15,2013-06-03 04:25:00,
2013-06-02 23:30:00,54.4,44.8,30.00,ESE,117,0.0,0.0,70,0.00,,,0.00,Wunderground v.1.15,2013-06-03 04:30:00,
2013-06-02 23:40:00,54.2,44.6,30.00,ESE,118,1.0,4.0,70,0.00,,,0.00,Wunderground v.1.15,2013-06-03 04:40:00,
2013-06-02 23:44:00,54.0,44.8,30.00,ESE,119,2.0,4.0,71,0.00,,,0.00,Wunderground v.1.15,2013-06-03 04:44:00,
2013-06-02 23:50:00,53.9,44.7,30.00,ESE,119,2.0,2.0,71,0.00,,,0.00,Wunderground v.1.15,2013-06-03 04:50:00,
2013-06-02 23:55:00,53.8,45.0,30.00,ESE,120,2.0,2.0,72,0.00,,,0.00,Wunderground v.1.15,2013-06-03 04:55:00,